• In Hungary
  • List of Countries
  • For 7 days
  • Water Temperature
  • Satellite Maps
  • Weather Map
  • News
  • Weather Widgets
  • user-avatar
    Login

    Hourly Weather Cempkowo

    Today, 16 July, Monday

    Time Temperature Precipitation Wind Pressure Humidity
    00:00 +17°C° 0 mm 3 mps 749 mmHg 92%
    01:00 +16°C° 0 mm 3 mps 749 mmHg 93%
    02:00 +16°C° 0 mm 3 mps 748 mmHg 94%
    03:00 +16°C° 0 mm 3 mps 748 mmHg 95%
    04:00 +14°C° 0 mm 3 mps 748 mmHg 95%
    05:00 +17°C° 0.7 mm 3 mps 748 mmHg 93%
    06:00 +18°C° 0.7 mm 4 mps 748 mmHg 91%
    07:00 +19°C° 0.7 mm 4 mps 748 mmHg 89%
    08:00 +20°C° 0.7 mm 4 mps 748 mmHg 85%
    09:00 +21°C° 0.7 mm 4 mps 748 mmHg 82%
    10:00 +23°C° 0.7 mm 4 mps 747 mmHg 78%
    11:00 +23°C° 0.9 mm 4 mps 747 mmHg 74%
    12:00 +25°C° 0.9 mm 4 mps 747 mmHg 71%
    13:00 +26°C° 0.9 mm 4 mps 747 mmHg 67%
    14:00 +25°C° 0.8 mm 4 mps 746 mmHg 70%
    15:00 +25°C° 0.8 mm 4 mps 746 mmHg 72%
    16:00 +25°C° 0.8 mm 4 mps 746 mmHg 75%
    17:00 +22°C° 0.6 mm 4 mps 746 mmHg 79%
    18:00 +21°C° 0.6 mm 4 mps 746 mmHg 84%
    19:00 +20°C° 0.6 mm 3 mps 745 mmHg 88%
    20:00 +20°C° 0.7 mm 3 mps 745 mmHg 91%
    21:00 +19°C° 0.7 mm 2 mps 745 mmHg 93%
    22:00 +19°C° 0.7 mm 2 mps 745 mmHg 95%
    23:00 +19°C° 0.9 mm 2 mps 745 mmHg 95%

    Tomorrow, 17 July, Tuesday

    Time Temperature Precipitation Wind Pressure Humidity
    00:00 +19°C° 0.9 mm 2 mps 745 mmHg 95%
    01:00 +19°C° 0.9 mm 2 mps 745 mmHg 96%
    02:00 +18°C° 0.3 mm 3 mps 744 mmHg 96%
    03:00 +18°C° 0.3 mm 3 mps 744 mmHg 97%
    04:00 +18°C° 0.3 mm 3 mps 744 mmHg 97%
    05:00 +19°C° 0.1 mm 3 mps 744 mmHg 96%
    06:00 +19°C° 0.1 mm 3 mps 744 mmHg 95%
    07:00 +19°C° 0.1 mm 3 mps 744 mmHg 94%
    08:00 +20°C° 0.1 mm 3 mps 744 mmHg 91%
    09:00 +21°C° 0.1 mm 3 mps 744 mmHg 88%
    10:00 +21°C° 0.1 mm 2 mps 744 mmHg 85%
    11:00 +23°C° 0.1 mm 2 mps 744 mmHg 82%
    12:00 +24°C° 0.1 mm 2 mps 744 mmHg 79%
    13:00 +24°C° 0.1 mm 2 mps 744 mmHg 76%
    14:00 +25°C° 0.1 mm 2 mps 744 mmHg 74%
    15:00 +25°C° 0.1 mm 2 mps 744 mmHg 72%
    16:00 +26°C° 0.1 mm 2 mps 743 mmHg 70%
    17:00 +25°C° 0.5 mm 2 mps 744 mmHg 76%
    18:00 +24°C° 0.5 mm 2 mps 744 mmHg 83%
    19:00 +23°C° 0.5 mm 2 mps 744 mmHg 89%
    20:00 +21°C° 1.2 mm 2 mps 744 mmHg 91%
    21:00 +21°C° 1.2 mm 2 mps 744 mmHg 92%
    22:00 +20°C° 1.2 mm 2 mps 744 mmHg 94%
    23:00 +20°C° 0.5 mm 2 mps 744 mmHg 95%

    Day after tomorrow, 18 July, Wednesday

    Time Temperature Precipitation Wind Pressure Humidity
    00:00 +20°C° 0.5 mm 3 mps 744 mmHg 95%
    01:00 +20°C° 0.5 mm 3 mps 744 mmHg 95%
    02:00 +20°C° 0.2 mm 3 mps 744 mmHg 96%
    03:00 +20°C° 0.2 mm 3 mps 744 mmHg 96%
    04:00 +19°C° 0.2 mm 3 mps 744 mmHg 96%
    05:00 +20°C° 0.4 mm 3 mps 744 mmHg 94%
    06:00 +21°C° 0.4 mm 3 mps 744 mmHg 92%
    07:00 +22°C° 0.4 mm 4 mps 744 mmHg 91%
    08:00 +23°C° 1.2 mm 4 mps 744 mmHg 87%
    09:00 +25°C° 1.2 mm 4 mps 744 mmHg 83%
    10:00 +26°C° 1.2 mm 4 mps 744 mmHg 79%
    11:00 +26°C° 0.9 mm 4 mps 745 mmHg 77%
    12:00 +27°C° 0.9 mm 5 mps 745 mmHg 75%
    13:00 +27°C° 0.9 mm 5 mps 745 mmHg 73%
    14:00 +27°C° 0.5 mm 5 mps 745 mmHg 74%
    15:00 +27°C° 0.5 mm 6 mps 745 mmHg 76%
    16:00 +27°C° 0.5 mm 6 mps 745 mmHg 77%
    17:00 +26°C° 0.4 mm 6 mps 745 mmHg 80%
    18:00 +24°C° 0.4 mm 6 mps 746 mmHg 84%
    19:00 +23°C° 0.4 mm 6 mps 746 mmHg 87%
    20:00 +22°C° 0 mm 6 mps 746 mmHg 90%
    21:00 +21°C° 0 mm 5 mps 747 mmHg 92%
    22:00 +20°C° 0 mm 5 mps 747 mmHg 94%
    23:00 +19°C° 0 mm 5 mps 747 mmHg 93%

    19 July, Thursday

    Time Temperature Precipitation Wind Pressure Humidity
    00:00 +19°C° 0 mm 5 mps 747 mmHg 93%
    01:00 +19°C° 0 mm 5 mps 747 mmHg 93%
    02:00 +19°C° 0 mm 5 mps 747 mmHg 93%
    03:00 +17°C° 0 mm 5 mps 748 mmHg 93%
    04:00 +18°C° 0 mm 4 mps 748 mmHg 93%
    05:00 +19°C° 0 mm 5 mps 748 mmHg 92%
    06:00 +19°C° 0 mm 5 mps 748 mmHg 90%
    07:00 +19°C° 0 mm 5 mps 748 mmHg 88%
    08:00 +20°C° 0 mm 5 mps 748 mmHg 84%
    09:00 +21°C° 0 mm 5 mps 748 mmHg 80%
    10:00 +22°C° 0 mm 5 mps 749 mmHg 76%
    11:00 +23°C° 0 mm 6 mps 749 mmHg 73%
    12:00 +24°C° 0 mm 6 mps 748 mmHg 70%
    13:00 +26°C° 0 mm 6 mps 748 mmHg 66%
    14:00 +26°C° 0 mm 6 mps 749 mmHg 66%
    15:00 +26°C° 0 mm 6 mps 749 mmHg 65%
    16:00 +26°C° 0 mm 6 mps 749 mmHg 65%
    17:00 +25°C° 0 mm 5 mps 749 mmHg 69%
    18:00 +23°C° 0 mm 4 mps 749 mmHg 74%
    19:00 +22°C° 0 mm 3 mps 749 mmHg 79%
    20:00 +21°C° 0 mm 3 mps 749 mmHg 83%
    21:00 +19°C° 0 mm 3 mps 749 mmHg 87%
    22:00 +18°C° 0 mm 3 mps 750 mmHg 92%
    23:00 +17°C° 0 mm 3 mps 750 mmHg 93%

    20 July, Friday

    Time Temperature Precipitation Wind Pressure Humidity
    00:00 +17°C° 0 mm 3 mps 750 mmHg 93%
    01:00 +16°C° 0 mm 3 mps 750 mmHg 94%
    02:00 +16°C° 0 mm 3 mps 750 mmHg 94%
    03:00 +14°C° 0 mm 3 mps 750 mmHg 95%
    04:00 +14°C° 0 mm 3 mps 750 mmHg 95%
    05:00 +16°C° 0 mm 3 mps 750 mmHg 89%
    06:00 +17°C° 0 mm 3 mps 750 mmHg 84%
    07:00 +19°C° 0 mm 3 mps 750 mmHg 78%
    08:00 +20°C° 0 mm 3 mps 750 mmHg 71%
    09:00 +22°C° 0 mm 4 mps 750 mmHg 64%
    10:00 +23°C° 0 mm 4 mps 750 mmHg 58%
    11:00 +25°C° 0 mm 4 mps 750 mmHg 55%
    12:00 +26°C° 0 mm 4 mps 750 mmHg 52%
    13:00 +27°C° 0 mm 4 mps 749 mmHg 49%
    14:00 +26°C° 0 mm 4 mps 749 mmHg 49%
    15:00 +26°C° 0 mm 4 mps 749 mmHg 49%
    16:00 +26°C° 0 mm 3 mps 749 mmHg 49%
    17:00 +25°C° 0 mm 3 mps 749 mmHg 55%
    18:00 +24°C° 0 mm 2 mps 749 mmHg 61%
    19:00 +21°C° 0 mm 2 mps 749 mmHg 67%
    20:00 +20°C° 0 mm 2 mps 749 mmHg 69%
    21:00 +18°C° 0 mm 2 mps 749 mmHg 72%
    22:00 +17°C° 0 mm 2 mps 750 mmHg 75%
    23:00 +16°C° 0 mm 2 mps 750 mmHg 76%

    21 July, Saturday

    Time Temperature Precipitation Wind Pressure Humidity
    00:00 +16°C° 0 mm 2 mps 750 mmHg 76%
    01:00 +15°C° 0 mm 2 mps 749 mmHg 77%
    02:00 +15°C° 0 mm 1 mps 749 mmHg 77%
    03:00 +15°C° 0 mm 1 mps 749 mmHg 77%
    04:00 +14°C° 0 mm 1 mps 749 mmHg 78%
    05:00 +16°C° 0 mm 1 mps 749 mmHg 73%
    06:00 +18°C° 0 mm 2 mps 749 mmHg 69%
    07:00 +19°C° 0 mm 2 mps 749 mmHg 64%
    08:00 +21°C° 0 mm 2 mps 749 mmHg 61%
    09:00 +23°C° 0 mm 2 mps 749 mmHg 57%
    10:00 +25°C° 0 mm 2 mps 749 mmHg 53%
    11:00 +26°C° 0 mm 2 mps 748 mmHg 50%
    12:00 +26°C° 0 mm 1 mps 748 mmHg 47%
    13:00 +27°C° 0 mm 1 mps 748 mmHg 45%
    14:00 +27°C° 0 mm 1 mps 748 mmHg 44%
    15:00 +27°C° 0 mm 1 mps 747 mmHg 44%
    16:00 +28°C° 0 mm 1 mps 747 mmHg 44%
    17:00 +26°C° 0 mm 2 mps 747 mmHg 50%
    18:00 +25°C° 0 mm 2 mps 747 mmHg 55%
    19:00 +23°C° 0 mm 2 mps 747 mmHg 61%
    20:00 +21°C° 0 mm 2 mps 747 mmHg 62%
    21:00 +20°C° 0 mm 3 mps 747 mmHg 63%
    22:00 +19°C° 0 mm 3 mps 747 mmHg 63%
    23:00 +18°C° 0 mm 3 mps 747 mmHg 65%
    Show more